• Processing (Info)

  • MPEC 2004-J75 : 2004 JN13

    The following Minor Planet Electronic Circular may be linked-to from your own Web pages, but must not otherwise be redistributed electronically.

    A form allowing access to any MPEC is at the bottom of this page.


    Read MPEC 2004-J74 Read MPEC 2004-J76


    M.P.E.C. 2004-J75                                Issued 2004 May 15, 20:09 UT
    
         The Minor Planet Electronic Circulars contain information on unusual
             minor planets and routine data on comets.  They are published
       on behalf of Commission 20 of the International Astronomical Union by the
              Minor Planet Center, Smithsonian Astrophysical Observatory,
                              Cambridge, MA 02138, U.S.A.
    
             Supported in part by the Steven and Michele Kirsch Foundation
                 Prepared using the Tamkin Foundation Computer Network
    
                                  MPC@CFA.HARVARD.EDU
              URL http://cfa-www.harvard.edu/iau/mpc.html  ISSN 1523-6714
    
                                       2004 JN13
    
    Observations:
         K04J13N  C2004 04 23.40468 15 38 11.88 -06 06 18.0          18.3 R EJ075703
         K04J13N  C2004 04 23.41383 15 38 11.35 -06 06 16.3          18.8 R EJ075703
         K04J13N  C2004 04 23.42297 15 38 10.77 -06 06 13.6          19.2 R EJ075703
         K04J13N  C2004 04 23.43213 15 38 10.29 -06 06 12.1          19.2 R EJ075703
         K04J13N  C2004 05 13.26509 15 16 55.55 -04 51 39.8          19.0 R EJ075699
         K04J13N  C2004 05 13.27859 15 16 54.59 -04 51 37.4                 EJ075699
         K04J13N  C2004 05 13.29212 15 16 53.55 -04 51 34.2                 EJ075699
         K04J13N  C2004 05 13.30564 15 16 52.65 -04 51 30.9                 EJ075699
         K04J13N  C2004 05 14.25175 15 15 44.44 -04 48 32.9          19.0   EJ075704
         K04J13N  C2004 05 14.28069 15 15 42.28 -04 48 28.3          19.6   EJ075704
         K04J13N  C2004 05 14.29003 15 15 41.61 -04 48 27.9          19.6   EJ075704
         K04J13N* C2004 05 15.29871 15 14 28.58 -04 45 23.0          18.9   EJ075704
         K04J13N  C2004 05 15.30948 15 14 27.78 -04 45 22.7          19.1   EJ075704
         K04J13N  C2004 05 15.31979 15 14 27.01 -04 45 20.0          19.3   EJ075704
         K04J13N  C2004 05 15.33012 15 14 26.31 -04 45 18.4          19.6   EJ075704
         K04J13N  C2004 05 15.34202 15 14 25.41 -04 45 15.1          19.7   EJ075704
    
    Observer details:
    699 Lowell Observatory-LONEOS.  Observer B. A. Skiff.  0.59-m LONEOS Schmidt
        + CCD.
    703 Catalina Sky Survey.  Observers S. Larson, E. Beshore, E. Christensen,
        R. Hill, S. Howard, D. McLean.  0.68-m f/1.8 Schmidt + CCD.
    704 Lincoln Laboratory ETS, New Mexico.  Observers M. Blythe, F. Shelly,
        M. Bezpalko, R. Huber, L. Manguso, D. Torres, R. Kracke, M. McCleary,
        H. Stange, A. Milner.  Measurers J. Stuart, R. Sayer, J. Evans, J. Kommers.
        1.0-m f/2.15 reflector + CCD.
    
    Orbital elements:
    2004 JN13
    Epoch 2004 Apr. 25.0 TT = JDT 2453120.5                 MPC
    M 304.60262              (2000.0)            P               Q
    n   0.20340432     Peri.  275.89536     +0.97018751     -0.07382676
    a   2.8634917      Node    88.49790     +0.16229482     +0.90528509
    e   0.6976763      Incl.   13.35104     -0.17999055     +0.41834018
    P   4.85           H   14.7           G   0.15
    From 16 observations 2004 Apr. 23-May 15.
    
    Ephemeris:
    2004 JN13                a,e,i = 2.86, 0.70, 13                  q = 0.8657
    Date    TT    R. A. (2000) Decl.     Delta      r     Elong.  Phase     V
    2004 05 15    15 14.84   -04 46.2    1.919    2.909   165.5     5.0    18.9
    2004 05 25    15 02.68   -04 21.6    1.878    2.838   157.0     8.0    18.9
    2004 06 04    14 51.09   -04 10.2    1.865    2.766   146.1    11.8    19.0
    2004 06 14    14 41.01   -04 14.3    1.876    2.691   134.9    15.5    19.1
    2004 06 24    14 33.16   -04 34.7    1.907    2.615   124.1    18.8    19.1
    2004 07 04    14 27.99   -05 10.9    1.951    2.537   113.8    21.5    19.2
    2004 07 14    14 25.64   -06 01.4    2.003    2.457   104.1    23.7    19.3
    2004 07 24    14 26.11   -07 04.6    2.058    2.375    95.1    25.2    19.3
    2004 08 03    14 29.27   -08 18.7    2.113    2.291    86.8    26.2    19.3
    2004 08 13    14 34.97   -09 42.0    2.162    2.205    79.0    26.8    19.3
    2004 08 23    14 43.07   -11 13.1    2.204    2.117    71.7    27.0    19.3
    2004 09 02    14 53.45   -12 50.5    2.236    2.028    65.0    26.8    19.2
    
    Kyle E. Smalley              (C) Copyright 2004 MPC           M.P.E.C. 2004-J75
    

    Read MPEC 2004-J74 Read MPEC 2004-J76


    MPEC number:

    Enter an MPEC number in one of the following forms:

    • 1997-B01 (the full form)
    • J97B01 (the packed version of the full form)
    • B01 (the abbreviated form)